[[{"header":{"parameterUnit":"m.s-1","parameterCategory":1,"la1":30.2991,"la2":30.254,"lo1":-89.0895,"lo2":-89.0444,"dy":0.0017,"dx":0.0017,"nx":28,"ny":28,"refTime":"2025-12-03T03:00:00:Z","depth":0,"parameterNumber":2,"parameterNumberName":"U-component_of_WINDS"},"data":[0,0,0,0,0,0,0,0,0,0,0,0,0,0,0,0,0,0,0,0,0,0,0,0,0,0,0,0,0,0,0,0,0,0,0,0,0,0,0,0,0,0,0,0,0,0,0,0,0,0,0,0,0,0,0,0,0,0,-2.6264,-2.6265,0,-2.6297,-2.6297,-2.6298,-2.623,-2.6228,-2.6226,-2.6224,-2.6257,-2.626,-2.6263,0,0,0,0,0,0,0,0,0,0,0,0,0,-2.6142,-2.6145,-2.6264,-2.6265,-2.6265,-2.6297,-2.6297,-2.6298,-2.6231,-2.6228,-2.6225,-2.6223,-2.6256,-2.626,-2.6263,0,0,0,0,0,0,0,0,0,0,0,0,0,-2.6187,-2.6146,-2.6264,-2.6235,-2.6233,-2.6297,-2.6297,-2.6298,-2.6231,-2.6228,-2.6225,-2.6221,-2.6255,-2.6259,-2.6264,-2.6357,0,0,-2.6277,-2.6279,0,0,0,0,0,0,0,0,-2.6185,-2.6192,-2.6239,-2.6237,-2.6235,-2.6256,-2.6266,-2.6318,-2.6232,-2.6232,-2.6224,-2.622,-2.6259,-2.6263,-2.6277,-2.6358,-2.636,-2.6277,-2.628,-2.6282,-2.6283,0,0,0,0,0,0,0,-2.6182,-2.619,-2.6277,-2.624,-2.6237,-2.622,-2.6223,-2.6276,-2.6264,-2.6232,-2.6227,-2.6232,-2.6258,-2.6273,-2.6277,-2.636,-2.6277,-2.6281,-2.6284,-2.6286,-2.6517,-2.6521,0,0,0,0,0,0,-2.6182,-2.6188,-2.6276,-2.6278,-2.6201,-2.6225,-2.6228,-2.6253,-2.6263,-2.6261,-2.6234,-2.6228,-2.6267,-2.6272,-2.6278,-2.6386,-2.6282,-2.6286,-2.6289,-2.6514,-2.6518,-2.6522,0,0,0,0,0,0,-2.618,-2.6191,-2.6275,-2.6232,-2.6241,-2.6231,-2.6259,-2.6255,-2.627,-2.6265,-2.6262,-2.6252,-2.6264,-2.6272,-2.6337,-2.6386,-2.6288,-2.6292,-2.651,-2.6515,-2.652,-2.6604,0,0,0,0,0,0,-2.6177,-2.619,-2.6226,-2.6233,-2.6244,-2.6334,-2.6262,-2.6258,-2.6278,-2.627,-2.6281,-2.6279,-2.6262,-2.6331,-2.6341,-2.639,-2.6295,-2.6505,-2.6512,-2.6518,-2.6597,-2.6611,-2.6624,0,0,0,0,0,-2.6172,-2.6249,-2.6228,-2.6239,-2.6288,-2.6337,-2.6343,-2.6322,-2.6282,-2.6317,-2.6314,-2.6279,-2.6379,-2.6338,-2.6349,-2.6401,-2.6502,-2.651,-2.6518,-2.6591,-2.6609,-2.6624,0,0,0,0,0,0,-2.6249,-2.6249,-2.6226,-2.6307,-2.6323,-2.6326,-2.637,-2.6342,-2.6369,-2.6361,-2.6333,-2.6336,-2.6406,-2.641,-2.6364,-2.649,-2.6434,-2.6444,-2.6485,-2.6502,-2.6516,-2.6513,-2.6299,0,0,0,0,0,-2.6275,-2.6315,-2.6313,-2.6385,-2.6394,-2.6381,-2.6401,-2.6383,-2.6398,-2.6404,-2.6406,-2.6421,-2.6455,-2.6479,-2.6511,-2.6597,-2.6597,-2.6638,-2.6651,-2.6662,-2.6672,-2.6716,-2.6733,-2.6548,-2.6548,-2.6548,0,0,-2.6329,-2.6335,-2.6362,-2.64,-2.641,-2.6451,-2.6387,-2.6434,-2.6464,-2.6411,-2.6473,-2.6474,-2.649,-2.6565,-2.6599,-2.657,-2.6723,-2.6672,-2.6681,-2.6685,-2.6725,-2.6743,-2.6759,-2.6553,-2.6552,-2.6551,0,0,-2.645,-2.6459,-2.6518,-2.6529,-2.6544,-2.6535,-2.6549,-2.6556,-2.6555,-2.6616,-2.6577,-2.6612,-2.6673,-2.6685,-2.6699,-2.6822,-2.679,-2.6833,-2.6904,-2.6947,-2.6962,-2.6975,-2.7017,-2.7033,-2.6842,-2.6843,-2.6843,0,-2.6516,-2.6577,-2.6552,-2.6602,-2.6619,-2.6573,-2.6632,-2.6644,-2.6669,-2.6682,-2.665,-2.6723,-2.6731,-2.6808,-2.6837,-2.6851,-2.6865,-2.6832,-2.6962,-2.6974,-2.6986,-2.7026,-2.7042,-2.6848,-2.6847,-2.6847,-2.6846,0,-2.6656,-2.6699,-2.6746,-2.677,-2.6793,-2.6847,-2.683,-2.6856,-2.6835,-2.6829,-2.6891,-2.6898,-2.6929,-2.6946,-2.6927,-2.702,-2.7002,-2.6966,-2.6909,-2.7009,-2.7046,-2.7061,-2.6855,-2.6853,-2.6851,-2.685,0,0,-2.6827,-2.6836,-2.6853,-2.6863,-2.6875,-2.6908,-2.6959,-2.6989,-2.7011,-2.703,-2.7072,-2.7123,-2.709,-2.7106,-2.7088,-2.7126,-2.7221,-2.7085,-2.7085,-2.7109,-2.7321,-2.7347,-2.7366,-2.72,-2.7203,-2.7205,-2.732,0,-2.6945,-2.7033,-2.7012,-2.7099,-2.7137,-2.7093,-2.7138,-2.715,-2.7145,-2.7176,-2.7171,-2.7207,-2.7161,-2.717,-2.7206,-2.7202,-2.7263,-2.7193,-2.7237,-2.7239,-2.7234,-2.7385,-2.7413,-2.7521,-2.7334,-2.7337,-2.7338,0,-2.7095,-2.7118,-2.7209,-2.7213,-2.7229,-2.7269,-2.7294,-2.7325,-2.7338,-2.7331,-2.7348,-2.7322,-2.7372,-2.7314,-2.7382,-2.7335,-2.7352,-2.7352,-2.7356,-2.7358,-2.7294,-2.7391,-2.7555,-2.7571,-2.7361,-2.736,-2.7358,0,-2.7208,-2.7262,-2.7323,-2.7333,-2.734,-2.7369,-2.7374,-2.7383,-2.7402,-2.7424,-2.7435,-2.7463,-2.7478,-2.75,-2.7481,-2.7441,-2.7551,-2.7492,-2.7546,-2.7547,-2.7571,-2.757,-2.7739,-2.7584,-2.7583,-2.7583,-2.7583,0,-2.7342,-2.7399,-2.7374,-2.7411,-2.7473,-2.7447,-2.751,-2.7509,-2.7517,-2.7553,-2.7516,-2.7551,-2.7525,-2.7556,-2.7542,-2.7599,-2.7607,-2.7602,-2.7598,-2.7605,-2.7606,-2.7615,-2.7607,-2.7587,-2.7586,-2.7586,-2.7585,0,-2.7479,-2.7464,-2.7527,-2.7529,-2.753,-2.7576,-2.7576,-2.761,-2.7602,-2.7648,-2.7657,-2.7645,-2.768,-2.7664,-2.7701,-2.7691,-2.7765,-2.7751,-2.776,-2.7756,-2.781,-2.7805,-2.7992,-2.8014,-2.7845,-2.7847,-2.7848,0,-2.7565,-2.7607,-2.7613,-2.7634,-2.764,-2.7675,-2.7694,-2.767,-2.7691,-2.7707,-2.7739,-2.7771,-2.7795,-2.7854,-2.7848,-2.7876,-2.7861,-2.7925,-2.7865,-2.7871,-2.7861,-2.7858,-2.7861,-2.7936,-2.7938,-2.794,-2.7941,0,-2.7718,-2.7708,-2.7737,-2.7763,-2.7786,-2.7805,-2.7821,-2.7841,-2.7817,-2.7842,-2.7878,-2.7896,-2.7934,-2.7966,-2.799,-2.7993,-2.7963,-2.796,-2.7974,-2.7981,-2.7985,-2.7982,-2.7792,-2.7956,-2.7954,-2.7953,-2.7952,-2.7952,-2.7831,-2.7866,-2.7875,-2.7907,-2.7917,-2.7932,-2.7964,-2.7959,-2.7988,-2.8016,-2.8,-2.8041,-2.8051,-2.808,-2.8087,-2.8119,-2.8093,-2.8114,-2.8119,-2.8124,-2.813,-2.798,-2.8123,-2.8123,-2.8122,-2.8122,-2.8122,0,-2.7982,-2.7984,-2.8015,-2.8037,-2.8063,-2.8032,-2.8048,-2.8071,-2.8107,-2.8118,-2.8143,-2.8182,-2.8213,-2.8209,-2.8236,-2.8262,-2.8249,-2.827,-2.8267,-2.8268,-2.8152,-2.8137,-2.828,-2.828,-2.828,-2.828,-2.828,-2.828,-2.8063,-2.812,-2.8111,-2.8172,-2.8174,-2.8214,-2.8225,-2.8239,-2.8247,-2.8293,-2.8318,-2.8315,-2.832,-2.8347,-2.8373,-2.8371,-2.8382,-2.8408,-2.8401,-2.8292,-2.8277,-2.8262,-2.8247,-2.8411,-2.8411,-2.8514,-2.8515,-2.8516]},{"header":{"parameterUnit":"m.s-1","parameterCategory":1,"la1":30.2991,"la2":30.254,"lo1":-89.0895,"lo2":-89.0444,"dy":0.0017,"dx":0.0017,"nx":28,"ny":28,"refTime":"2025-12-03T03:00:00:Z","depth":0,"parameterNumber":3,"parameterNumberName":"V-component_of_WINDS"},"data":[0,0,0,0,0,0,0,0,0,0,0,0,0,0,0,0,0,0,0,0,0,0,0,0,0,0,0,0,0,0,0,0,0,0,0,0,0,0,0,0,0,0,0,0,0,0,0,0,0,0,0,0,0,0,0,0,0,0,-4.021,-4.0211,0,-4.0279,-4.0279,-4.028,-4.0235,-4.0233,-4.0231,-4.0229,-4.0296,-4.03,-4.0303,0,0,0,0,0,0,0,0,0,0,0,0,0,-4.0037,-4.004,-4.021,-4.0211,-4.0212,-4.0278,-4.0279,-4.028,-4.0236,-4.0233,-4.0231,-4.0228,-4.0295,-4.0299,-4.0304,0,0,0,0,0,0,0,0,0,0,0,0,0,-4.0109,-4.0041,-4.021,-4.0198,-4.0197,-4.0278,-4.0279,-4.0281,-4.0236,-4.0233,-4.023,-4.0227,-4.0294,-4.0299,-4.0304,-4.04,0,0,-4.0321,-4.0324,0,0,0,0,0,0,0,0,-4.0105,-4.0115,-4.0199,-4.0199,-4.0199,-4.0245,-4.0243,-4.0321,-4.0237,-4.0222,-4.0229,-4.0226,-4.0282,-4.0288,-4.0307,-4.0403,-4.0406,-4.0322,-4.0325,-4.0328,-4.0329,0,0,0,0,0,0,0,-4.01,-4.0112,-4.0237,-4.02,-4.02,-4.0187,-4.0194,-4.0257,-4.0268,-4.0223,-4.022,-4.0228,-4.0281,-4.0302,-4.0309,-4.0407,-4.0322,-4.0327,-4.033,-4.0332,-4.0582,-4.0585,0,0,0,0,0,0,-4.0097,-4.0108,-4.0235,-4.0239,-4.0143,-4.0193,-4.0201,-4.0233,-4.0267,-4.0269,-4.0231,-4.0226,-4.0294,-4.0302,-4.0311,-4.0423,-4.0327,-4.0333,-4.0336,-4.0578,-4.0582,-4.0586,0,0,0,0,0,0,-4.0093,-4.0108,-4.0232,-4.0173,-4.0188,-4.0199,-4.0236,-4.0236,-4.0258,-4.0273,-4.0275,-4.0251,-4.0292,-4.0303,-4.0378,-4.0425,-4.0335,-4.034,-4.0574,-4.058,-4.0584,-4.065,0,0,0,0,0,0,-4.0088,-4.0107,-4.0145,-4.0174,-4.0191,-4.03,-4.0239,-4.024,-4.0268,-4.0262,-4.0293,-4.0295,-4.0291,-4.037,-4.0383,-4.0431,-4.0345,-4.057,-4.0577,-4.0582,-4.0643,-4.0656,-4.0667,0,0,0,0,0,-4.0082,-4.0161,-4.0147,-4.0163,-4.0239,-4.0303,-4.0312,-4.0307,-4.0272,-4.0309,-4.0318,-4.0294,-4.0418,-4.0378,-4.0393,-4.0442,-4.0567,-4.0575,-4.0582,-4.0638,-4.0654,-4.0667,0,0,0,0,0,0,-4.0136,-4.0165,-4.015,-4.0241,-4.027,-4.0295,-4.0342,-4.0324,-4.0363,-4.0356,-4.0346,-4.0353,-4.0431,-4.0444,-4.0399,-4.0535,-4.0487,-4.0497,-4.0524,-4.0539,-4.0551,-4.0545,-4.0349,0,0,0,0,0,-4.0159,-4.021,-4.0231,-4.0309,-4.0324,-4.0331,-4.0358,-4.0351,-4.0381,-4.0392,-4.0408,-4.0436,-4.0481,-4.0511,-4.0553,-4.0645,-4.065,-4.0686,-4.0698,-4.0708,-4.0717,-4.0764,-4.078,-4.061,-4.061,-4.061,0,0,-4.0206,-4.0228,-4.026,-4.032,-4.0342,-4.0393,-4.0341,-4.0398,-4.0435,-4.0401,-4.0472,-4.0484,-4.0515,-4.0598,-4.0635,-4.0611,-4.0765,-4.0718,-4.0725,-4.0729,-4.0773,-4.0789,-4.0803,-4.0615,-4.0614,-4.0614,0,0,-4.0317,-4.034,-4.0406,-4.0429,-4.0462,-4.0466,-4.0481,-4.0509,-4.0516,-4.0588,-4.0562,-4.0605,-4.0684,-4.0706,-4.0728,-4.0845,-4.0823,-4.0859,-4.0922,-4.0967,-4.0981,-4.0992,-4.1032,-4.1047,-4.0868,-4.0869,-4.0869,0,-4.0371,-4.0449,-4.0442,-4.05,-4.0526,-4.0498,-4.0563,-4.0585,-4.0631,-4.0648,-4.0621,-4.0717,-4.0736,-4.0823,-4.0851,-4.0871,-4.0887,-4.0855,-4.098,-4.0991,-4.1002,-4.104,-4.1055,-4.0873,-4.0872,-4.0872,-4.0871,0,-4.0512,-4.0566,-4.0615,-4.0659,-4.0691,-4.0753,-4.0754,-4.0786,-4.0776,-4.0782,-4.0853,-4.0875,-4.092,-4.094,-4.0931,-4.1025,-4.1009,-4.0981,-4.0931,-4.1022,-4.1058,-4.1072,-4.0879,-4.0877,-4.0876,-4.0875,0,0,-4.066,-4.0699,-4.0717,-4.0736,-4.077,-4.0811,-4.087,-4.0915,-4.0942,-4.0973,-4.1021,-4.1087,-4.1061,-4.1086,-4.1078,-4.1119,-4.1208,-4.1086,-4.1086,-4.1106,-4.131,-4.133,-4.1347,-4.1194,-4.1196,-4.1199,-4.1307,0,-4.0772,-4.0876,-4.0871,-4.0968,-4.1016,-4.0989,-4.104,-4.1065,-4.1072,-4.1112,-4.1118,-4.1165,-4.1128,-4.1142,-4.1181,-4.1189,-4.1248,-4.1181,-4.1236,-4.1238,-4.1228,-4.1366,-4.1387,-4.1488,-4.1321,-4.1323,-4.1325,0,-4.0917,-4.0953,-4.1055,-4.108,-4.11,-4.1146,-4.1185,-4.1225,-4.1252,-4.1254,-4.128,-4.1266,-4.1323,-4.1273,-4.1351,-4.1306,-4.1328,-4.1335,-4.1338,-4.1342,-4.1286,-4.1372,-4.1521,-4.1535,-4.1347,-4.1345,-4.1343,0,-4.1012,-4.1087,-4.1157,-4.1174,-4.1205,-4.1238,-4.1252,-4.1276,-4.1303,-4.1337,-4.1353,-4.1394,-4.1415,-4.1446,-4.1442,-4.1406,-4.152,-4.147,-4.1521,-4.1522,-4.1546,-4.1544,-4.1699,-4.1563,-4.1563,-4.1562,-4.1562,0,-4.1137,-4.12,-4.12,-4.1243,-4.1311,-4.1304,-4.1372,-4.1382,-4.1404,-4.1447,-4.1426,-4.1466,-4.1459,-4.1499,-4.1496,-4.156,-4.157,-4.1571,-4.157,-4.1573,-4.1572,-4.1586,-4.1579,-4.1566,-4.1565,-4.1565,-4.1564,0,-4.1255,-4.1258,-4.1332,-4.1355,-4.1362,-4.1412,-4.143,-4.147,-4.1474,-4.1528,-4.1541,-4.1547,-4.1593,-4.1592,-4.1644,-4.1642,-4.1719,-4.171,-4.171,-4.1708,-4.1759,-4.1753,-4.1927,-4.1948,-4.1799,-4.1801,-4.1802,0,-4.1334,-4.1381,-4.1409,-4.1437,-4.1453,-4.1498,-4.1525,-4.1518,-4.1547,-4.158,-4.1615,-4.1659,-4.1694,-4.1768,-4.1776,-4.1815,-4.1805,-4.1863,-4.1811,-4.1812,-4.1804,-4.1801,-4.1805,-4.1873,-4.1875,-4.1876,-4.1878,0,-4.1473,-4.1471,-4.1511,-4.1551,-4.1584,-4.1615,-4.1643,-4.1666,-4.1663,-4.1695,-4.1742,-4.1769,-4.1822,-4.1865,-4.1902,-4.1915,-4.1895,-4.1894,-4.1907,-4.191,-4.1908,-4.1908,-4.1737,-4.189,-4.1889,-4.1888,-4.1887,-4.1887,-4.1572,-4.1612,-4.1638,-4.1682,-4.1703,-4.1729,-4.1767,-4.1776,-4.1815,-4.1857,-4.1851,-4.1903,-4.1926,-4.1974,-4.199,-4.2029,-4.2009,-4.2029,-4.2034,-4.2038,-4.2043,-4.1903,-4.2036,-4.2036,-4.2036,-4.2035,-4.2035,0,-4.1708,-4.1723,-4.1764,-4.1804,-4.1838,-4.1818,-4.1848,-4.1877,-4.1923,-4.1947,-4.1982,-4.2034,-4.2075,-4.2086,-4.2125,-4.2154,-4.2146,-4.2164,-4.2162,-4.2164,-4.206,-4.2044,-4.217,-4.217,-4.217,-4.217,-4.217,-4.217,-4.1783,-4.1849,-4.1851,-4.1926,-4.1939,-4.199,-4.2009,-4.2032,-4.2051,-4.2111,-4.2145,-4.2152,-4.217,-4.221,-4.2246,-4.2248,-4.2263,-4.2285,-4.2283,-4.2186,-4.2172,-4.2159,-4.2143,-4.2289,-4.2289,-4.2384,-4.2385,-4.2385]}]]